Location: Étouvelles
(49.5207°N, 3.5808°E)
Time: 10:25:21
(UTC+00:00)

Cosmos 2219 Rocket - Pass Details

Date: 03 February 2023
Orbit: 826 x 848 km, 71.0° (Epoch: 23 March)

Event Time Altitude Azimuth Distance (km) Brightness Sun altitude
Rises 19:47:30 0° 215° (SW) 3,354 5.6 -29.8°
Reaches altitude 10° 19:49:57 10° 218° (SW) 2,426 4.9 -30.2°
Enters shadow 19:54:46 61° 258° (WSW) 940 2.5 -31.0°
